Weather observations for the past three days for
Morristown Moore-Murrell Airport
Imperial (Metric)
Date Time (edt) Wind (mph) Vis. (mi.) Weather Sky Cond. Temperature (ºF) Relative Humidity Wind Chill (°F) Heat Index (°F) Pressure Precipitation (in)
Air Dwpt 6 hour altimeter (in) sea level (mb) 1 hr 3 hr 6 hr
Max. Min.
15 21:10 Calm 10.00 Fair CLR 78.8 64.4 61% 81 29.99 0.0
15 20:50 Calm 10.00 Fair CLR 82.4 64.4 55% 84 29.99 0.0
15 20:10 Calm 10.00 Fair CLR 84.2 64.4 51% 86 29.98 0.0
15 19:10 N 6 10.00 Fair CLR 87.8 60.8 40% 88 29.98 0.0
15 18:55 Calm 10.00 Fair CLR 87.8 60.8 40% 88 29.98 0.0 0.01
15 18:35 N 7 10.00 Fair CLR 87.8 60.8 40% 88 29.98 0.0
15 18:15 Calm 10.00 Fair CLR 87.8 62.6 43% 88 29.98 0.0
15 17:55 N 6 10.00 Fair CLR 87.8 60.8 40% 88 29.99 0.0 0.01
15 17:35 NE 6 10.00 Fair CLR 89.6 60.8 38% 90 29.99 0.0
15 17:15 NE 3 10.00 Fair CLR 89.6 60.8 38% 90 29.99 0.0
15 16:55 N 6 10.00 Fair CLR 87.8 60.8 40% 88 29.99 0.0
15 16:35 N 5 G 13 10.00 Fair CLR 89.6 60.8 38% 90 30 0.0
15 16:15 N 7 10.00 Fair CLR 87.8 60.8 40% 88 30 0.0
15 15:55 N 7 G 13 10.00 Fair CLR 87.8 62.6 43% 88 30 0.0
15 15:35 N 6 10.00 Fair CLR 87.8 64.4 46% 89 30 0.0
15 15:15 Vrbl 6 10.00 Partly Cloudy FEW050 SCT055 SCT065 87.8 66.2 49% 90 30.01 0.0
15 14:55 Vrbl 5 10.00 Mostly Cloudy SCT050 BKN060 BKN065 87.8 68 52% 91 30.01 0.0
15 14:35 N 6 10.00 Partly Cloudy FEW047 SCT055 SCT065 86 68 55% 89 30.01 0.0
15 14:15 Vrbl 5 10.00 Partly Cloudy SCT050 SCT060 87.8 69.8 55% 93 30.01 0.0
15 13:55 Vrbl 5 10.00 Fair CLR 87.8 68 52% 91 30.02 0.0
15 13:35 Calm 10.00 Fair CLR 86 68 55% 89 30.02 0.0
15 13:15 SE 7 10.00 A Few Clouds FEW046 86 69.8 59% 91 30.03 0.0
15 12:30 Calm 10.00 A Few Clouds FEW043 86 68 55% 89 30.03 0.0
15 12:15 Vrbl 5 10.00 Partly Cloudy SCT043 84.2 69.8 62% 88 30.04 0.0
15 11:50 Vrbl 7 G 13 10.00 Fair CLR 84.2 69.8 62% 88 30.04 0.0
15 11:30 Vrbl 7 G 13 10.00 Fair CLR 84.2 69.8 62% 88 30.04 0.0
15 11:15 Vrbl 3 G 13 10.00 Fair CLR 84.2 69.8 62% 88 30.04 0.0
15 10:55 E 8 10.00 Fair CLR 82.4 69.8 66% 86 30.04 0.0
15 10:35 Vrbl 6 10.00 Fair CLR 82.4 0 0% 30.04 0.0
15 10:15 E 6 10.00 Fair CLR 82.4 71.6 70% 87 30.04 0.0
15 09:55 Vrbl 5 10.00 Fair CLR 80.6 71.6 74% 85 30.04 0.0
15 09:30 E 9 10.00 Fair CLR 80.6 71.6 74% 85 30.04 0.0
15 09:10 E 6 G 12 10.00 Fair CLR 78.8 71.6 79% 82 30.03 0.0
15 08:20 Calm 10.00 Fair CLR 75.2 73.4 94% 74 30.02 0.0
15 08:15 Calm 10.00 Fair CLR 75.2 73.4 94% 74 30.02 0.0
15 07:20 Calm 10.00 Fair CLR 69.8 69.8 100% 30 0.0
15 07:15 Calm 10.00 Fair CLR 69.8 69.8 100% 30 0.0
15 06:55 Calm 10.00 Fair CLR 68 68 100% 29.99 0.0
15 06:30 Calm 9.00 Fair CLR 68 68 100% 29.99 0.0
15 06:15 Calm 9.00 A Few Clouds FEW045 68 68 100% 29.98 0.0
15 05:55 Calm 10.00 Partly Cloudy SCT046 SCT060 68 68 100% 29.96 0.0
15 05:35 Calm 10.00 A Few Clouds FEW060 68 68 100% 29.97 0.0
15 05:15 Calm 10.00 A Few Clouds FEW060 68 68 100% 29.96 0.0
15 04:55 Calm 10.00 Fair CLR 68 68 100% 29.96 0.0
15 04:35 Calm 10.00 Fair CLR 68 68 100% 29.95 0.0
15 04:15 Calm 10.00 A Few Clouds FEW055 68 68 100% 29.95 0.0
15 03:55 Calm 10.00 A Few Clouds FEW055 FEW075 69.8 69.8 100% 29.95 0.0
15 03:35 Calm 10.00 Partly Cloudy FEW045 FEW055 SCT075 69.8 69.8 100% 29.96 0.0
15 03:15 Calm 10.00 Partly Cloudy FEW049 SCT055 69.8 69.8 100% 29.96 0.0
15 02:55 Calm 10.00 Mostly Cloudy FEW048 BKN055 69.8 69.8 100% 29.96 0.0
15 02:35 Calm 10.00 Mostly Cloudy BKN060 69.8 69.8 100% 29.96 0.0
15 02:15 Calm 10.00 Overcast OVC060 71.6 71.6 100% 29.95 0.0
15 01:55 Calm 10.00 Overcast OVC060 69.8 69.8 100% 29.96 0.0
15 01:35 Calm 10.00 Mostly Cloudy BKN060 73.4 73.4 100% 29.96 0.0
15 01:15 Calm 10.00 Overcast OVC055 71.6 71.6 100% 29.96 0.0
15 00:55 Calm 10.00 Overcast OVC050 71.6 71.6 100% 29.96 0.0
15 00:35 Calm 10.00 Overcast OVC050 73.4 73.4 100% 29.95 0.0
15 00:15 Calm 10.00 Overcast OVC055 73.4 73.4 100% 29.96 0.0
14 23:55 Calm 10.00 Mostly Cloudy FEW050 BKN055 75.2 71.6 89% 75 29.96 0.0
14 23:35 Calm 10.00 Partly Cloudy FEW050 SCT095 75.2 73.4 94% 74 29.96 0.0
14 23:15 NW 3 10.00 Mostly Cloudy FEW055 BKN095 78.8 71.6 79% 82 29.95 0.0
14 22:55 Calm 10.00 Mostly Cloudy FEW044 SCT050 BKN095 78.8 71.6 79% 82 29.95 0.0
14 22:35 Calm 10.00 Overcast BKN044 OVC050 78.8 71.6 79% 82 29.95 0.0
14 22:15 N 3 10.00 Overcast BKN045 OVC050 78.8 71.6 79% 82 29.94 0.0
14 21:55 NW 5 10.00 Overcast BKN050 OVC055 80.6 71.6 74% 85 29.94 0.0
14 21:35 W 9 10.00 Overcast BKN055 BKN085 OVC110 80.6 71.6 74% 85 29.93 0.0
14 21:15 Calm 10.00 Partly Cloudy SCT055 SCT110 80.6 71.6 74% 85 29.92 0.0
14 20:55 Calm 10.00 Fair CLR 82.4 71.6 70% 87 29.92 0.0
14 20:35 Calm 10.00 Fair CLR 82.4 71.6 70% 87 29.92 0.0
14 20:10 SW 6 10.00 Fair CLR 84.2 69.8 62% 88 29.91 0.0
14 19:55 W 6 10.00 Fair CLR 84.2 69.8 62% 88 29.91 0.0
14 19:35 W 7 10.00 Fair CLR 86 69.8 59% 91 29.91 0.0
14 19:15 W 7 10.00 Fair CLR 86 69.8 59% 91 29.91 0.0
14 18:55 W 5 G 12 10.00 Fair CLR 87.8 69.8 55% 93 29.9 0.0
14 18:35 NW 9 10.00 Fair CLR 87.8 69.8 55% 93 29.9 0.0
14 18:10 NW 9 10.00 Fair CLR 87.8 69.8 55% 93 29.9 0.0
14 17:55 W 6 G 12 10.00 A Few Clouds FEW049 87.8 69.8 55% 93 29.9 0.0
14 17:35 W 6 G 12 10.00 A Few Clouds FEW049 87.8 69.8 55% 93 29.91 0.0
14 17:15 NW 10 10.00 A Few Clouds FEW048 87.8 69.8 55% 93 29.91 0.0
14 16:55 Calm 10.00 A Few Clouds FEW049 FEW095 87.8 71.6 59% 94 29.91 0.0
14 16:35 Vrbl 3 10.00 Fair CLR 87.8 68 52% 91 29.92 0.0
14 16:15 W 8 10.00 Fair CLR 87.8 66.2 49% 90 29.92 0.0
14 15:55 W 8 G 15 10.00 A Few Clouds FEW048 87.8 66.2 49% 90 29.92 0.0
14 15:35 Vrbl 6 G 13 10.00 A Few Clouds FEW048 FEW060 87.8 68 52% 91 29.93 0.0
14 15:15 W 7 G 14 10.00 Partly Cloudy SCT047 SCT060 86 68 55% 89 29.94 0.0
14 14:55 W 6 G 14 10.00 Fair CLR 87.8 69.8 55% 93 29.94 0.0
14 14:35 NW 10 10.00 Fair CLR 87.8 68 52% 91 29.94 0.0
14 14:15 Vrbl 7 G 15 10.00 Fair CLR 86 69.8 59% 91 29.95 0.0
14 13:55 W 6 G 13 10.00 A Few Clouds FEW045 FEW055 86 69.8 59% 91 29.96 0.0
14 13:35 W 8 10.00 Partly Cloudy SCT045 86 69.8 59% 91 29.96 0.0
14 13:15 Vrbl 5 10.00 Fair CLR 86 68 55% 89 29.96 0.0
14 12:55 W 7 10.00 Partly Cloudy FEW050 SCT055 86 68 55% 89 29.97 0.0
14 12:35 NW 7 G 15 10.00 Partly Cloudy SCT050 84.2 69.8 62% 88 29.97 0.0
14 12:15 W 6 10.00 Fair CLR 84.2 71.6 66% 90 29.97 0.0
14 11:55 SW 7 G 15 10.00 Fair CLR 84.2 69.8 62% 88 29.98 0.0
14 11:35 Vrbl 6 10.00 Fair CLR 82.4 71.6 70% 87 29.99 0.0
14 11:15 Vrbl 6 10.00 Fair CLR 82.4 71.6 70% 87 29.99 0.0
14 10:55 W 8 G 14 10.00 Fair CLR 80.6 71.6 74% 85 29.99 0.0
14 10:35 W 9 10.00 Fair CLR 80.6 69.8 70% 84 29.99 0.0
14 10:15 W 8 10.00 Fair CLR 80.6 69.8 70% 84 29.99 0.0
14 09:55 W 6 G 12 10.00 Fair CLR 78.8 69.8 74% 81 29.99 0.0
14 09:35 W 6 10.00 Fair CLR 78.8 69.8 74% 81 29.99 0.0
14 09:15 Vrbl 5 10.00 Fair CLR 77 69.8 79% 79 30 0.0
14 08:55 Vrbl 3 10.00 Fair CLR 75.2 71.6 89% 75 30 0.0
14 08:35 Calm 10.00 Fair CLR 73.4 69.8 89% 30 0.0
14 08:15 Calm 10.00 Fair CLR 73.4 69.8 89% 30 0.0
14 07:55 Calm 10.00 Fair CLR 71.6 68 88% 29.99 0.0
14 07:35 Calm 10.00 Fair CLR 68 68 100% 29.99 0.0
14 07:15 Calm 9.00 Fair CLR 68 68 100% 29.98 0.0
14 06:55 Calm 8.00 Fair CLR 68 68 100% 29.99 0.0
14 06:35 Calm 10.00 Fair CLR 66.2 66.2 100% 29.98 0.0
14 06:15 Calm 10.00 A Few Clouds FEW046 FEW050 FEW060 66.2 66.2 100% 29.97 0.0
14 05:55 Calm 0.00 Overcast BKN046 OVC055 68 68 100% 29.97 0.0
14 05:35 Calm 10.00 Overcast BKN046 OVC055 68 66.2 94% 29.97 0.0
14 05:15 Calm 10.00 Overcast BKN048 BKN055 OVC070 68 68 100% 29.96 0.0
14 04:55 Calm 10.00 Overcast SCT046 BKN050 OVC065 66.2 66.2 100% 29.96 0.0
14 04:35 Calm 10.00 Overcast SCT048 BKN060 OVC070 66.2 66.2 100% 29.96 0.0
14 04:15 Calm 10.00 Overcast BKN050 BKN060 OVC070 69.8 66.2 88% 29.96 0.0
14 03:55 Calm 10.00 Mostly Cloudy BKN055 BKN065 68 66.2 94% 29.96 0.0
14 03:35 Calm 10.00 Mostly Cloudy SCT055 BKN065 68 66.2 94% 29.96 0.0
14 03:15 Calm 10.00 Partly Cloudy FEW050 SCT065 SCT080 68 66.2 94% 29.96 0.0
14 02:55 Calm 10.00 Partly Cloudy FEW042 FEW049 SCT075 69.8 66.2 88% 29.97 0.0
14 02:35 Calm 10.00 A Few Clouds FEW048 FEW070 68 68 100% 29.97 0.0
14 02:15 Calm 10.00 A Few Clouds FEW050 FEW080 68 66.2 94% 29.97 0.0
14 01:55 Calm 10.00 Partly Cloudy FEW048 SCT075 68 66.2 94% 29.97 0.0
14 01:35 Calm 10.00 Partly Cloudy SCT075 68 66.2 94% 29.97 0.0
14 01:15 Calm 10.00 Partly Cloudy SCT075 69.8 68 94% 29.97 0.0
14 00:55 Calm 10.00 Partly Cloudy SCT070 68 68 100% 29.97 0.0
14 00:35 Calm 10.00 A Few Clouds FEW050 69.8 68 94% 29.97 0.0
14 00:15 Calm 10.00 Mostly Cloudy BKN050 71.6 68 88% 29.98 0.0
13 23:55 Calm 10.00 Partly Cloudy SCT050 SCT055 71.6 68 88% 29.97 0.0
13 23:35 Calm 10.00 A Few Clouds FEW048 73.4 68 83% 29.97 0.0
13 23:15 Calm 10.00 Fair CLR 73.4 68 83% 29.97 0.0
13 22:55 Calm 10.00 Fair CLR 73.4 68 83% 29.96 0.0
13 22:35 Calm 10.00 Fair CLR 73.4 68 83% 29.96 0.0
13 22:15 Calm 10.00 Fair CLR 73.4 68 83% 29.96 0.0
13 21:55 Calm 10.00 A Few Clouds FEW049 77 68 74% 79 29.96 0.0
13 21:35 Calm 10.00 Fair CLR 78.8 68 70% 81 29.95 0.0
13 20:55 Calm 10.00 Fair CLR 78.8 66.2 65% 81 29.94 0.0
13 20:35 Calm 10.00 Fair CLR 82.4 64.4 55% 84 29.94 0.0
13 20:15 Calm 10.00 Fair CLR 82.4 62.6 51% 83 29.95 0.0
13 19:55 NW 5 10.00 Fair CLR 84.2 62.6 48% 85 29.95 0.0
13 19:35 W 5 10.00 Fair CLR 86 62.6 46% 87 29.95 0.0
13 19:10 W 5 10.00 Fair CLR 86 62.6 46% 87 29.96 0.0
13 18:55 N 6 10.00 Fair CLR 86 62.6 46% 87 29.96 0.0
13 18:35 W 7 10.00 Fair CLR 86 60.8 43% 86 29.96 0.0
13 18:15 Vrbl 6 10.00 Fair CLR 86 60.8 43% 86 29.96 0.0
13 17:55 W 7 10.00 Fair CLR 86 62.6 46% 87 29.96 0.0
13 17:35 NW 6 G 13 10.00 Fair CLR 86 62.6 46% 87 29.96 0.0
13 17:15 Vrbl 6 10.00 Fair CLR 86 62.6 46% 87 29.96 0.0
13 16:55 Calm 10.00 A Few Clouds FEW070 FEW090 86 62.6 46% 87 29.96 0.0
13 16:35 NW 9 10.00 A Few Clouds FEW075 FEW090 86 62.6 46% 87 29.97 0.0
13 16:15 Vrbl 3 10.00 Fair CLR 86 62.6 46% 87 29.97 0.0
13 15:55 NW 8 10.00 A Few Clouds FEW055 86 64.4 49% 87 29.98 0.0
13 15:35 Vrbl 7 10.00 Fair CLR 86 64.4 49% 87 29.98 0.0
13 15:15 NW 5 10.00 Fair CLR 84.2 62.6 48% 85 29.98 0.0
13 14:55 Vrbl 6 10.00 Fair CLR 86 64.4 49% 87 29.98 0.0
13 14:35 Vrbl 3 G 13 10.00 Fair CLR 84.2 64.4 51% 86 29.99 0.0
13 14:15 Calm 10.00 Fair CLR 84.2 66.2 55% 87 30 0.0
13 13:55 NW 8 10.00 Fair CLR 84.2 64.4 51% 86 30.01 0.0
13 13:35 N 8 10.00 Fair CLR 84.2 66.2 55% 87 30.01 0.0
13 13:15 Vrbl 6 G 12 10.00 Partly Cloudy FEW055 FEW070 SCT080 82.4 68 62% 85 30.01 0.0
13 12:55 W 3 10.00 Mostly Cloudy SCT043 SCT049 BKN055 80.6 66.2 62% 83 30.01 0.0
13 12:35 Calm 10.00 Partly Cloudy SCT043 80.6 68 66% 83 30.01 0.0
13 12:15 Calm 10.00 Fair CLR 82.4 68 62% 85 30.02 0.0
13 11:55 Vrbl 5 10.00 Fair CLR 80.6 69.8 70% 84 30.02 0.0
13 11:15 NW 5 10.00 Mostly Cloudy BKN060 BKN075 80.6 69.8 70% 84 30.02 0.0
13 10:55 Calm 10.00 Partly Cloudy SCT060 80.6 68 66% 83 30.03 0.0
13 10:35 SW 3 10.00 Fair CLR 80.6 68 66% 83 30.03 0.0
13 10:15 SE 5 10.00 Fair CLR 78.8 68 70% 81 30.03 0.0
13 09:55 Calm 10.00 Fair CLR 77 68 74% 79 30.03 0.0
13 09:35 Calm 10.00 Fair CLR 75.2 68 78% 76 30.03 0.0
13 09:15 Calm 10.00 Fair CLR 75.2 68 78% 76 30.02 0.0
13 08:55 Calm 10.00 Fair CLR 73.4 66.2 78% 30.02 0.0
13 08:35 Calm 10.00 Fair CLR 71.6 66.2 83% 30.02 0.0
13 08:15 Calm 10.00 Fair CLR 71.6 66.2 83% 30.02 0.0
13 07:55 E 5 10.00 Fair CLR 69.8 66.2 88% 30.01 0.0
13 07:35 Calm 10.00 Fair CLR 68 64.4 88% 30 0.0
13 07:15 Calm 10.00 A Few Clouds FEW070 66.2 64.4 94% 30 0.0
13 06:55 Calm 9.00 Partly Cloudy SCT070 64.4 64.4 100% 30 0.0
13 06:35 Calm 9.00 Fair CLR 64.4 64.4 100% 29.99 0.0
13 06:15 Calm 9.00 A Few Clouds FEW065 64.4 64.4 100% 29.99 0.0
13 05:55 Calm 8.00 Mostly Cloudy FEW055 BKN065 BKN075 64.4 64.4 100% 29.98 0.0
13 05:30 Calm 7.00 Mostly Cloudy SCT050 SCT060 BKN070 64.4 64.4 100% 29.98 0.0
13 05:15 Calm 10.00 Partly Cloudy FEW046 FEW055 SCT065 64.4 64.4 100% 29.98 0.0
13 04:55 Calm 10.00 Mostly Cloudy FEW042 SCT050 BKN065 64.4 64.4 100% 29.98 0.0
13 04:35 Calm 9.00 Partly Cloudy FEW060 SCT070 64.4 64.4 100% 29.97 0.0
13 04:15 Calm 10.00 A Few Clouds FEW050 FEW060 FEW075 66.2 66.2 100% 29.97 0.0
13 03:55 Calm 10.00 Partly Cloudy FEW048 BKN055 SCT070 66.2 66.2 100% 29.97 0.0
13 03:35 Calm 10.00 Mostly Cloudy BKN055 66.2 66.2 100% 29.96 0.0
13 03:15 Calm 10.00 Partly Cloudy SCT055 SCT065 66.2 66.2 100% 29.96 0.0
13 02:55 Calm 10.00 Mostly Cloudy FEW050 SCT060 BKN070 68 66.2 94% 29.96 0.0
13 02:35 Calm 10.00 Overcast BKN050 OVC070 68 66.2 94% 29.96 0.0
13 02:15 Calm 10.00 Overcast BKN050 OVC055 68 66.2 94% 29.97 0.0
13 01:55 Calm 10.00 Overcast OVC050 69.8 66.2 88% 29.97 0.0
13 01:35 Calm 10.00 Overcast BKN050 OVC055 69.8 66.2 88% 29.97 0.0
13 01:15 Calm 10.00 Overcast OVC050 69.8 66.2 88% 29.98 0.0
13 00:55 Calm 10.00 Overcast BKN050 OVC060 69.8 66.2 88% 29.98 0.0
13 00:35 Calm 10.00 Overcast BKN050 OVC055 69.8 66.2 88% 29.98 0.0
13 00:15 Calm 10.00 Overcast BKN050 OVC065 71.6 66.2 83% 29.99 0.0
Date Time (edt) Wind (mph) Vis. (mi.) Weather Sky Cond. Air Dwpt Max. Min. Relative Humidity Wind Chill (°F) Heat Index (°F) altimeter (in) sea level (mb) 1 hr 3 hr 6 hr
6 hour
Temperature (ºF) Pressure Precipitation (in)